This is the latest recevied weather packets stored in our database for station/object N3EDS. If no packets are shown the sender has not sent any weather packets the latest 10 day(s).
| Time | Temp. | Humidity | Pressure | Rain* | Wind** | Luminosity | Snow |
|---|---|---|---|---|---|---|---|
| 1777814665 | 5° C | 72% | 1017.5 hPa | 0 mm | - | 94 W/m² | - |
| 1777814362 | 4.44° C | 71% | 1017.5 hPa | 0 mm | - | 119 W/m² | - |
| 1777814059 | 4.44° C | 72% | 1017.5 hPa | 0 mm | - | 51 W/m² | - |
| 1777813756 | 4.44° C | 75% | 1017.3 hPa | 0 mm | - | 112 W/m² | - |
| 1777813454 | 3.89° C | 74% | 1017.5 hPa | 0 mm | - | 70 W/m² | - |
| 1777813151 | 3.89° C | 75% | 1017.4 hPa | 0 mm | - | 54 W/m² | - |
| 1777812849 | 3.89° C | 75% | 1017.5 hPa | 0 mm | - | 44 W/m² | - |
| 1777812544 | 3.33° C | 75% | 1017.4 hPa | 0 mm | - | 96 W/m² | - |
| 1777812242 | 3.33° C | 77% | 1017.6 hPa | 0 mm | - | 139 W/m² | - |
| 1777811940 | 3.33° C | 78% | 1017.5 hPa | 0 mm | - | 48 W/m² | - |
| 1777811639 | 2.78° C | 79% | 1017.3 hPa | 0 mm | - | 57 W/m² | - |
| 1777811334 | 2.78° C | 81% | 1017.4 hPa | 0 mm | - | 37 W/m² | - |
| 1777811031 | 2.78° C | 81% | 1017.5 hPa | 0 mm | - | 41 W/m² | - |
| 1777810728 | 2.78° C | 82% | 1017.2 hPa | 0 mm | - | 49 W/m² | - |
| 1777810425 | 2.22° C | 83% | 1017.4 hPa | 0 mm | - | 41 W/m² | - |
| 1777810120 | 2.22° C | 84% | 1017.2 hPa | 0 mm | - | 30 W/m² | - |
| 1777809818 | 1.67° C | 86% | 1017.2 hPa | 0 mm | - | 34 W/m² | - |
| 1777809516 | 1.67° C | 87% | 1017.2 hPa | 0 mm | - | 31 W/m² | - |
| 1777809213 | 1.67° C | 88% | 1016.5 hPa | 0 mm | - | 26 W/m² | - |
| 1777808911 | 1.11° C | 89% | 1016.9 hPa | 0 mm | - | 26 W/m² | - |
| 1777808607 | 1.11° C | 90% | 1017.1 hPa | 0 mm | - | 25 W/m² | - |
| 1777808304 | 0.56° C | 92% | 1017.2 hPa | 0 mm | - | 25 W/m² | - |
| 1777808004 | 0.56° C | 93% | 1017.1 hPa | 0 mm | - | 30 W/m² | - |
| 1777807700 | 0° C | 94% | 1016.8 hPa | 0 mm | - | 26 W/m² | - |
| 1777807398 | 0° C | 96% | 1017 hPa | 0 mm | - | 26 W/m² | - |
* Rain latest hour (hover to see other rain measurements)
** Current wind speed in m/s (hover to see current wind gust speed)